Weather History for Jackson, MN

Change the Weather History Date:

Tuesday, December 25, 2012

  Actual Average Record
Temperature  
Mean Temperature 2 °F -  
Max Temperature 8 °F 23 °F 44 °F (1999)
Min Temperature -4 °F 9 °F -14 °F (2000)
Degree Days  
Heating Degree Days 63    
Moisture  
Dew Point -4 °F    
Average Humidity 78    
Maximum Humidity 85    
Minimum Humidity 72    
Precipitation  
Precipitation 0.00 in - - ()
Sea Level Pressure  
Sea Level Pressure 30.37 in    
Wind  
Wind Speed 10 mph (NNW)    
Max Wind Speed 14 mph    
Max Gust Speed 17 mph    
Visibility 10 miles    
Events      
Averages and records for this station are not official NWS values.
T = Trace of Precipitation, MM = Missing Value Source: NWS Daily Summary

Daily Weather History Graph

Daily Weather History Graph

Search for Another Location

Airport:

Trip Planner

Search our weather history database for the weather conditions in past years. The results will help you decide how hot, cold, wet, or windy it might be!

Date:

Astronomy

Dec. 25, 2012 Rise Set
Actual Time 7:52 AM CST 4:48 PM CST
Civil Twilight 7:19 AM CST 5:21 PM CST
Nautical Twilight 6:43 AM CST 5:57 PM CST
Astronomical Twilight 6:08 AM CST 6:32 PM CST
Moon 2:58 PM CST (12/25) 5:23 AM CST (12/25)
Length of Visible Light 10h 02m
Length of Day
8h 56m
Waxing Gibbous, 94% of the Moon is Illuminated
Dec 25
Waxing Gibbous
Dec 28
Full
Jan 4
Last Quarter
Jan 11
New
Jan 18
First Quarter

Hourly Weather History & Observations

Time (CST) Temp. Windchill Dew Point Humidity Pressure Visibility Wind Dir Wind Speed Gust Speed Precip Events Conditions
12:13 AM -2.2 °F -20.7 °F -7.6 °F 78% 30.27 in 10.0 mi NNW 12.7 mph - N/A   Clear
12:33 AM -2.2 °F -20.7 °F -7.6 °F 78% 30.28 in 10.0 mi NNW 12.7 mph - N/A   Clear
12:53 AM -4.0 °F -23.0 °F -7.6 °F 85% 30.28 in 10.0 mi NNW 12.7 mph - N/A   Clear
1:13 AM -4.0 °F -22.1 °F -7.6 °F 85% 30.28 in 10.0 mi NW 11.5 mph - N/A   Clear
1:33 AM -4.0 °F -20.2 °F -9.4 °F 78% 30.30 in 10.0 mi NW 9.2 mph - N/A   Clear
1:53 AM -4.0 °F -20.2 °F -9.4 °F 78% 30.30 in 10.0 mi NW 9.2 mph - N/A   Clear
2:13 AM -4.0 °F -22.1 °F -9.4 °F 78% 30.31 in 10.0 mi NW 11.5 mph - N/A   Clear
2:33 AM -4.0 °F -23.7 °F -9.4 °F 78% 30.32 in 10.0 mi NW 13.8 mph - N/A   Clear
2:53 AM -4.0 °F -22.1 °F -9.4 °F 78% 30.32 in 10.0 mi NNW 11.5 mph - N/A   Clear
3:13 AM -4.0 °F -23.0 °F -9.4 °F 78% 30.31 in 10.0 mi NNW 12.7 mph - N/A   Clear
3:33 AM -4.0 °F -21.2 °F -9.4 °F 78% 30.32 in 10.0 mi NNW 10.4 mph - N/A   Clear
3:53 AM -4.0 °F -22.1 °F -9.4 °F 78% 30.32 in 10.0 mi NNW 11.5 mph 17.3 mph N/A   Clear
4:13 AM -4.0 °F -21.2 °F -9.4 °F 78% 30.32 in 10.0 mi NNW 10.4 mph - N/A   Clear
4:33 AM -4.0 °F -20.2 °F -9.4 °F 78% 30.32 in 10.0 mi NNW 9.2 mph - N/A   Clear
4:53 AM -4.0 °F -20.2 °F -9.4 °F 78% 30.32 in 10.0 mi NNW 9.2 mph - N/A   Clear
5:13 AM -4.0 °F -22.1 °F -9.4 °F 78% 30.32 in 10.0 mi NNW 11.5 mph - N/A   Clear
5:33 AM -4.0 °F -20.2 °F -9.4 °F 78% 30.32 in 10.0 mi NNW 9.2 mph 17.3 mph N/A   Clear
5:53 AM -4.0 °F -17.8 °F -9.4 °F 78% 30.34 in 10.0 mi NNW 6.9 mph - N/A   Clear
6:13 AM -4.0 °F -23.0 °F -9.4 °F 78% 30.35 in 10.0 mi NNW 12.7 mph - N/A   Clear
6:33 AM -4.0 °F -23.7 °F -9.4 °F 78% 30.36 in 10.0 mi NNW 13.8 mph - N/A   Clear
6:53 AM -4.0 °F -23.0 °F -9.4 °F 78% 30.36 in 10.0 mi NNW 12.7 mph - N/A   Clear
7:13 AM -4.0 °F -22.1 °F -9.4 °F 78% 30.36 in 10.0 mi NNW 11.5 mph - N/A   Clear
7:33 AM -4.0 °F -20.2 °F -9.4 °F 78% 30.37 in 10.0 mi NNW 9.2 mph - N/A   Clear
7:53 AM -4.0 °F -19.0 °F -9.4 °F 78% 30.38 in 10.0 mi NNW 8.1 mph - N/A   Clear
8:13 AM -4.0 °F -19.0 °F -9.4 °F 78% 30.39 in 10.0 mi NNW 8.1 mph - N/A   Clear
8:33 AM -4.0 °F -20.2 °F -9.4 °F 78% 30.40 in 10.0 mi NNW 9.2 mph - N/A   Clear
8:53 AM -4.0 °F -19.0 °F -9.4 °F 78% 30.41 in 10.0 mi NW 8.1 mph - N/A   Clear
9:13 AM -4.0 °F -22.1 °F -7.6 °F 85% 30.41 in 10.0 mi NNW 11.5 mph - N/A   Clear
9:33 AM -2.2 °F -19.9 °F -7.6 °F 78% 30.42 in 10.0 mi NNW 11.5 mph - N/A   Clear
9:53 AM -0.4 °F -16.7 °F -5.8 °F 78% 30.43 in 10.0 mi NNW 10.4 mph - N/A   Clear
10:13 AM -0.4 °F -15.7 °F -5.8 °F 78% 30.43 in 10.0 mi NNW 9.2 mph - N/A   Clear
10:33 AM 1.4 °F -12.5 °F -4.0 °F 78% 30.44 in 10.0 mi NW 8.1 mph - N/A   Clear
10:53 AM 1.4 °F -11.3 °F -4.0 °F 78% 30.44 in 10.0 mi NNW 6.9 mph - N/A   Clear
11:13 AM 3.2 °F -9.1 °F -4.0 °F 72% 30.44 in 10.0 mi North 6.9 mph - N/A   Clear
11:33 AM 3.2 °F -13.1 °F -2.2 °F 78% 30.44 in 10.0 mi NNW 11.5 mph - N/A   Clear
11:53 AM 3.2 °F -10.3 °F -2.2 °F 78% 30.44 in 10.0 mi NNW 8.1 mph - N/A   Clear
12:12 PM 5.0 °F -9.1 °F -0.4 °F 78% 30.44 in 10.0 mi NW 9.2 mph - N/A   Clear
12:33 PM 5.0 °F -6.9 °F -0.4 °F 78% 30.42 in 10.0 mi NNW 6.9 mph - N/A   Clear
12:53 PM 6.8 °F -6.9 °F -0.4 °F 72% 30.41 in 10.0 mi NNW 9.2 mph - N/A   Clear
1:13 PM 6.8 °F -4.8 °F 1.4 °F 79% 30.40 in 10.0 mi North 6.9 mph - N/A   Clear
1:33 PM 8.6 °F -3.7 °F 1.4 °F 73% 30.39 in 10.0 mi NNW 8.1 mph - N/A   Clear
1:53 PM 8.6 °F -3.7 °F 1.4 °F 73% 30.37 in 10.0 mi North 8.1 mph - N/A   Clear
2:13 PM 8.6 °F -3.7 °F 3.2 °F 79% 30.37 in 10.0 mi NNW 8.1 mph - N/A   Clear
2:33 PM 8.6 °F -3.7 °F 3.2 °F 79% 30.36 in 10.0 mi North 8.1 mph - N/A   Clear
2:52 PM 8.6 °F -6.3 °F 3.2 °F 79% 30.36 in 10.0 mi NNW 11.5 mph 17.3 mph N/A   Clear
3:13 PM 8.6 °F -4.7 °F 3.2 °F 79% 30.37 in 10.0 mi NNW 9.2 mph - N/A   Clear
3:33 PM 8.6 °F -2.6 °F 1.4 °F 73% 30.38 in 10.0 mi NNW 6.9 mph - N/A   Clear
3:52 PM 8.6 °F -7.0 °F 1.4 °F 73% 30.38 in 10.0 mi NNW 12.7 mph - N/A   Clear
4:13 PM 6.8 °F -5.9 °F 1.4 °F 79% 30.39 in 10.0 mi NNW 8.1 mph - N/A   Clear
4:33 PM 5.0 °F -8.1 °F -0.4 °F 78% 30.40 in 10.0 mi NNW 8.1 mph - N/A   Clear
4:52 PM 5.0 °F -8.1 °F -0.4 °F 78% 30.41 in 10.0 mi NW 8.1 mph - N/A   Clear
5:13 PM 5.0 °F -9.1 °F -0.4 °F 78% 30.43 in 10.0 mi NW 9.2 mph - N/A   Clear
5:33 PM 3.2 °F -9.1 °F -0.4 °F 85% 30.43 in 10.0 mi WNW 6.9 mph - N/A   Clear
5:52 PM 3.2 °F -10.3 °F -0.4 °F 85% 30.44 in 10.0 mi NW 8.1 mph - N/A   Clear
6:33 PM 3.2 °F -9.1 °F -2.2 °F 78% 30.43 in 10.0 mi NW 6.9 mph - N/A   Clear
6:53 PM 3.2 °F -9.1 °F -2.2 °F 78% 30.43 in 10.0 mi WNW 6.9 mph - N/A   Clear
7:13 PM 3.2 °F -11.3 °F -2.2 °F 78% 30.43 in 10.0 mi NW 9.2 mph - N/A   Clear
7:33 PM 3.2 °F -11.3 °F -2.2 °F 78% 30.42 in 10.0 mi NW 9.2 mph - N/A   Clear
7:53 PM 3.2 °F -11.3 °F -2.2 °F 78% 30.41 in 10.0 mi NW 9.2 mph - N/A   Clear
8:13 PM 3.2 °F -10.3 °F -2.2 °F 78% 30.40 in 10.0 mi NNW 8.1 mph - N/A   Clear
8:33 PM 3.2 °F -10.3 °F -2.2 °F 78% 30.38 in 10.0 mi NNW 8.1 mph - N/A   Clear
8:53 PM 3.2 °F -10.3 °F -2.2 °F 78% 30.37 in 10.0 mi NNW 8.1 mph - N/A   Clear
9:13 PM 3.2 °F -9.1 °F -2.2 °F 78% 30.37 in 10.0 mi NNW 6.9 mph - N/A   Clear
9:33 PM 3.2 °F -9.1 °F -2.2 °F 78% 30.36 in 10.0 mi NNW 6.9 mph - N/A   Clear
9:53 PM 3.2 °F -9.1 °F -0.4 °F 85% 30.35 in 10.0 mi North 6.9 mph - N/A   Clear
10:13 PM 5.0 °F -9.1 °F -0.4 °F 78% 30.35 in 10.0 mi North 9.2 mph - N/A   Clear
10:33 PM 5.0 °F -9.1 °F -0.4 °F 78% 30.35 in 10.0 mi North 9.2 mph - N/A   Clear
10:53 PM 5.0 °F -6.9 °F -0.4 °F 78% 30.35 in 10.0 mi North 6.9 mph - N/A   Scattered Clouds
11:13 PM 5.0 °F -4.1 °F -0.4 °F 78% 30.35 in 10.0 mi North 4.6 mph - N/A   Clear
11:33 PM 3.2 °F -10.3 °F -2.2 °F 78% 30.34 in 10.0 mi North 8.1 mph - N/A   Scattered Clouds
11:53 PM 3.2 °F -7.8 °F -2.2 °F 78% 30.33 in 10.0 mi North 5.8 mph - N/A   Clear